This is the latest recevied weather packets stored in our database for station/object K1NOT-WX. If no packets are shown the sender has not sent any weather packets the latest 10 day(s).
| Time | Temp. | Humidity | Pressure | Rain* | Wind** | Luminosity | Snow |
|---|---|---|---|---|---|---|---|
| 1777664532 | 17.78° C | 62% | 1007.1 hPa | 0 mm | - | - | - |
| 1777663632 | 17.78° C | 62% | 1007.4 hPa | 0 mm | - | - | - |
| 1777662732 | 17.78° C | 64% | 1007.4 hPa | 0 mm | - | - | - |
| 1777661832 | 17.22° C | 65% | 1007.4 hPa | 0 mm | - | - | - |
| 1777660932 | 17.78° C | 63% | 1007.8 hPa | 0 mm | - | - | - |
| 1777660032 | 17.22° C | 65% | 1007.8 hPa | 0 mm | - | - | - |
| 1777659132 | 16.67° C | 65% | 1007.8 hPa | 0 mm | - | - | - |
| 1777658232 | 16.67° C | 66% | 1008.1 hPa | 0 mm | - | - | - |
| 1777657332 | 16.67° C | 63% | 1008.1 hPa | 0 mm | - | - | - |
| 1777656432 | 16.11° C | 70% | 1008.5 hPa | 0 mm | - | - | - |
| 1777655532 | 15° C | 72% | 1008.1 hPa | 0 mm | - | - | - |
| 1777654632 | 16.67° C | 70% | 1008.1 hPa | 0 mm | - | - | - |
| 1777653732 | 16.67° C | 70% | 1008.5 hPa | 0 mm | - | - | - |
| 1777652832 | 15.56° C | 73% | 1008.5 hPa | 0 mm | - | - | - |
| 1777651932 | 15° C | 75% | 1008.5 hPa | 0 mm | - | - | - |
| 1777651032 | 15.56° C | 73% | 1008.5 hPa | 0 mm | - | - | - |
| 1777650132 | 16.67° C | 67% | 1008.5 hPa | 0 mm | - | - | - |
| 1777649232 | 16.11° C | 63% | 1008.5 hPa | 0 mm | - | - | - |
| 1777648332 | 15.56° C | 73% | 1008.5 hPa | 0 mm | - | - | - |
| 1777647432 | 13.33° C | 77% | 1008.5 hPa | 0 mm | - | - | - |
| 1777646532 | 13.33° C | 75% | 1008.5 hPa | 0 mm | - | - | - |
| 1777645632 | 13.33° C | 73% | 1008.5 hPa | 0 mm | - | - | - |
| 1777644732 | 12.22° C | 79% | 1008.1 hPa | 0 mm | - | - | - |
| 1777643832 | 11.11° C | 82% | 1008.1 hPa | 0 mm | - | - | - |
| 1777642932 | 10.56° C | 84% | 1008.1 hPa | 0 mm | - | - | - |
* Rain latest hour (hover to see other rain measurements)
** Current wind speed in m/s (hover to see current wind gust speed)